Year,Month,Day,Hour,Minute,Value (Times are PST for temperature in C)
2014,04,01,00,00,4.70
2014,04,01,00,01,4.70
2014,04,01,00,02,4.60
2014,04,01,00,03,4.60
2014,04,01,00,04,4.60
2014,04,01,00,05,4.50
2014,04,01,00,06,4.50
2014,04,01,00,07,4.40
2014,04,01,00,08,4.40
2014,04,01,00,09,4.40
2014,04,01,00,10,4.40
2014,04,01,00,11,4.30
2014,04,01,00,12,4.30
2014,04,01,00,13,4.30
2014,04,01,00,14,4.30
2014,04,01,00,15,4.30
2014,04,01,00,16,4.30
2014,04,01,00,17,4.20
2014,04,01,00,18,4.20
2014,04,01,00,19,4.20
2014,04,01,00,20,4.20
2014,04,01,00,21,4.20
2014,04,01,00,22,4.10
2014,04,01,00,23,4.10
2014,04,01,00,24,4.10
2014,04,01,00,25,4.10
2014,04,01,00,26,4.10
2014,04,01,00,27,4.10
2014,04,01,00,28,4.10
2014,04,01,00,29,4.10
2014,04,01,00,30,4.10
2014,04,01,00,31,4.10
2014,04,01,00,32,4.10
2014,04,01,00,33,4.10
2014,04,01,00,34,4.10
2014,04,01,00,35,4.10
2014,04,01,00,36,4.10
2014,04,01,00,37,4.10
2014,04,01,00,38,4.00
2014,04,01,00,39,4.00
2014,04,01,00,40,4.00
2014,04,01,00,41,4.00
2014,04,01,00,42,3.90
2014,04,01,00,43,3.90
2014,04,01,00,44,3.90
2014,04,01,00,45,3.90
2014,04,01,00,46,3.90
2014,04,01,00,47,3.90
2014,04,01,00,48,3.90
2014,04,01,00,49,3.90
2014,04,01,00,50,3.90
2014,04,01,00,51,3.90
2014,04,01,00,52,3.90
2014,04,01,00,53,3.90
2014,04,01,00,54,3.90
2014,04,01,00,55,3.90
2014,04,01,00,56,3.90
2014,04,01,00,57,3.90
2014,04,01,00,58,3.90
2014,04,01,00,59,3.90
2014,04,01,01,00,3.90
2014,04,01,01,01,3.90
2014,04,01,01,02,3.90
2014,04,01,01,03,3.90
2014,04,01,01,04,3.90
2014,04,01,01,05,3.80
2014,04,01,01,06,3.80
2014,04,01,01,07,3.80
2014,04,01,01,08,3.80
2014,04,01,01,09,3.80
2014,04,01,01,10,3.80
2014,04,01,01,11,3.80
2014,04,01,01,12,3.70
2014,04,01,01,13,3.70
2014,04,01,01,14,3.70
2014,04,01,01,15,3.70
2014,04,01,01,16,3.70
2014,04,01,01,17,3.70
2014,04,01,01,18,3.70
2014,04,01,01,19,3.70
2014,04,01,01,20,3.70
2014,04,01,01,21,3.60
2014,04,01,01,22,3.60
2014,04,01,01,23,3.60
2014,04,01,01,24,3.60
2014,04,01,01,25,3.60
2014,04,01,01,26,3.60
2014,04,01,01,27,3.60
2014,04,01,01,28,3.60
2014,04,01,01,29,3.60
2014,04,01,01,30,3.60
2014,04,01,01,31,3.60
2014,04,01,01,32,3.60
2014,04,01,01,33,3.70
2014,04,01,01,34,3.70
2014,04,01,01,35,3.70
2014,04,01,01,36,3.70
2014,04,01,01,37,3.70
2014,04,01,01,38,3.70
2014,04,01,01,39,3.70
2014,04,01,01,40,3.70
2014,04,01,01,41,3.80
2014,04,01,01,42,3.80
2014,04,01,01,43,3.90
2014,04,01,01,44,3.90
2014,04,01,01,45,4.00
2014,04,01,01,46,4.00
2014,04,01,01,47,4.10
2014,04,01,01,48,4.20
2014,04,01,01,49,4.20
2014,04,01,01,50,4.30
2014,04,01,01,51,4.30
2014,04,01,01,52,4.50
2014,04,01,01,53,4.60
2014,04,01,01,54,4.70
2014,04,01,01,55,4.70
2014,04,01,01,56,4.80
2014,04,01,01,57,4.80
2014,04,01,01,58,4.80
2014,04,01,01,59,4.80
2014,04,01,02,00,4.80
2014,04,01,02,01,4.80
2014,04,01,02,02,4.80
2014,04,01,02,03,4.80
2014,04,01,02,04,4.80
2014,04,01,02,05,4.80
2014,04,01,02,06,4.80
2014,04,01,02,07,4.80
2014,04,01,02,08,4.90
2014,04,01,02,09,4.80
2014,04,01,02,10,4.80
2014,04,01,02,11,4.80
2014,04,01,02,12,4.80
2014,04,01,02,13,4.80
2014,04,01,02,14,4.80
2014,04,01,02,15,4.80
2014,04,01,02,16,4.80
2014,04,01,02,17,4.90
2014,04,01,02,18,4.90
2014,04,01,02,19,4.90
2014,04,01,02,20,4.90
2014,04,01,02,21,4.90
2014,04,01,02,22,4.90
2014,04,01,02,23,4.90
2014,04,01,02,24,4.90
2014,04,01,02,25,4.90
2014,04,01,02,26,4.90
2014,04,01,02,27,4.90
2014,04,01,02,28,4.90
2014,04,01,02,29,4.90
2014,04,01,02,30,4.90
2014,04,01,02,31,4.90
2014,04,01,02,32,4.80
2014,04,01,02,33,4.80
2014,04,01,02,34,4.80
2014,04,01,02,35,4.80
2014,04,01,02,36,4.80
2014,04,01,02,37,4.80
2014,04,01,02,38,4.80
2014,04,01,02,39,4.80
2014,04,01,02,40,4.80
2014,04,01,02,41,4.70
2014,04,01,02,42,4.70
2014,04,01,02,43,4.70
2014,04,01,02,44,4.70
2014,04,01,02,45,4.80
2014,04,01,02,46,4.80
2014,04,01,02,47,4.80
2014,04,01,02,48,4.80
2014,04,01,02,49,4.80
2014,04,01,02,50,4.80
2014,04,01,02,51,4.80
2014,04,01,02,52,4.80
2014,04,01,02,53,4.80
2014,04,01,02,54,4.80
2014,04,01,02,55,4.80
2014,04,01,02,56,4.80
2014,04,01,02,57,4.80
2014,04,01,02,58,4.80
2014,04,01,02,59,4.80
2014,04,01,03,00,4.90
2014,04,01,03,01,4.80
2014,04,01,03,02,4.80
2014,04,01,03,03,4.80
2014,04,01,03,04,4.90
2014,04,01,03,05,4.90
2014,04,01,03,06,4.90
2014,04,01,03,07,4.90
2014,04,01,03,08,4.90
2014,04,01,03,09,4.90
2014,04,01,03,10,4.90
2014,04,01,03,11,4.80
2014,04,01,03,12,4.80
2014,04,01,03,13,4.80
2014,04,01,03,14,4.80
2014,04,01,03,15,4.80
2014,04,01,03,16,4.80
2014,04,01,03,17,4.80
2014,04,01,03,18,4.80
2014,04,01,03,19,4.80
2014,04,01,03,20,4.80
2014,04,01,03,21,4.80
2014,04,01,03,22,4.70
2014,04,01,03,23,4.70
2014,04,01,03,24,4.70
2014,04,01,03,25,4.70
2014,04,01,03,26,4.60
2014,04,01,03,27,4.60
2014,04,01,03,28,4.60
2014,04,01,03,29,4.60
2014,04,01,03,30,4.50
2014,04,01,03,31,4.50
2014,04,01,03,32,4.40
2014,04,01,03,33,4.40
2014,04,01,03,34,4.30
2014,04,01,03,35,4.30
2014,04,01,03,36,4.20
2014,04,01,03,37,4.20
2014,04,01,03,38,4.20
2014,04,01,03,39,4.10
2014,04,01,03,40,4.10
2014,04,01,03,41,4.10
2014,04,01,03,42,4.10
2014,04,01,03,43,4.10
2014,04,01,03,44,4.00
2014,04,01,03,45,4.00
2014,04,01,03,46,4.00
2014,04,01,03,47,4.00
2014,04,01,03,48,3.90
2014,04,01,03,49,3.90
2014,04,01,03,50,3.90
2014,04,01,03,51,3.90
2014,04,01,03,52,3.90
2014,04,01,03,53,3.90
2014,04,01,03,54,3.90
2014,04,01,03,55,3.80
2014,04,01,03,56,3.80
2014,04,01,03,57,3.80
2014,04,01,03,58,3.80
2014,04,01,03,59,3.80
2014,04,01,04,00,3.80
2014,04,01,04,01,3.80
2014,04,01,04,02,3.80
2014,04,01,04,03,3.90
2014,04,01,04,04,3.90
2014,04,01,04,05,3.90
2014,04,01,04,06,3.90
2014,04,01,04,07,3.90
2014,04,01,04,08,3.90
2014,04,01,04,09,3.90
2014,04,01,04,10,3.90
2014,04,01,04,11,3.90
2014,04,01,04,12,3.90
2014,04,01,04,13,3.90
2014,04,01,04,14,3.90
2014,04,01,04,15,3.90
2014,04,01,04,16,3.90
2014,04,01,04,17,3.80
2014,04,01,04,18,3.90
2014,04,01,04,19,3.90
2014,04,01,04,20,3.90
2014,04,01,04,21,3.90
2014,04,01,04,22,3.90
2014,04,01,04,23,3.90
2014,04,01,04,24,3.90
2014,04,01,04,25,3.90
2014,04,01,04,26,4.00
2014,04,01,04,27,4.00
2014,04,01,04,28,4.00
2014,04,01,04,29,4.00
2014,04,01,04,30,4.00
2014,04,01,04,31,4.00
2014,04,01,04,32,4.00
2014,04,01,04,33,4.00
2014,04,01,04,34,4.00
2014,04,01,04,35,3.90
2014,04,01,04,36,3.90
2014,04,01,04,37,3.90
2014,04,01,04,38,3.80
2014,04,01,04,39,3.80
2014,04,01,04,40,3.80
2014,04,01,04,41,3.80
2014,04,01,04,42,3.80
2014,04,01,04,43,3.80
2014,04,01,04,44,3.80
2014,04,01,04,45,3.90
2014,04,01,04,46,3.90
2014,04,01,04,47,4.00
2014,04,01,04,48,4.00
2014,04,01,04,49,4.00
2014,04,01,04,50,4.00
2014,04,01,04,51,4.00
2014,04,01,04,52,4.00
2014,04,01,04,53,4.00
2014,04,01,04,54,4.00
2014,04,01,04,55,4.00
2014,04,01,04,56,4.00
2014,04,01,04,57,4.00
2014,04,01,04,58,3.90
2014,04,01,04,59,3.90
2014,04,01,05,00,4.00
2014,04,01,05,01,4.00
2014,04,01,05,02,4.00
2014,04,01,05,03,4.10
2014,04,01,05,04,4.20
2014,04,01,05,05,4.40
2014,04,01,05,06,4.50
2014,04,01,05,07,4.60
2014,04,01,05,08,4.70
2014,04,01,05,09,4.70
2014,04,01,05,10,4.80
2014,04,01,05,11,4.80
2014,04,01,05,12,4.90
2014,04,01,05,13,4.90
2014,04,01,05,14,5.00
2014,04,01,05,15,5.00
2014,04,01,05,16,5.10
2014,04,01,05,17,5.20
2014,04,01,05,18,5.20
2014,04,01,05,19,5.40
2014,04,01,05,20,5.40
2014,04,01,05,21,5.40
2014,04,01,05,22,5.50
2014,04,01,05,23,5.50
2014,04,01,05,24,5.60
2014,04,01,05,25,5.70
2014,04,01,05,26,5.70
2014,04,01,05,27,5.80
2014,04,01,05,28,5.80
2014,04,01,05,29,5.90
2014,04,01,05,30,5.90
2014,04,01,05,31,5.90
2014,04,01,05,32,5.90
2014,04,01,05,33,5.80
2014,04,01,05,34,5.80
2014,04,01,05,35,5.80
2014,04,01,05,36,5.80
2014,04,01,05,37,5.70
2014,04,01,05,38,5.70
2014,04,01,05,39,5.70
2014,04,01,05,40,5.70
2014,04,01,05,41,5.70
2014,04,01,05,42,5.70
2014,04,01,05,43,5.70
2014,04,01,05,44,5.70
2014,04,01,05,45,5.70
2014,04,01,05,46,5.70
2014,04,01,05,47,5.60
2014,04,01,05,48,5.60
2014,04,01,05,49,5.60
2014,04,01,05,50,5.60
2014,04,01,05,51,5.60
2014,04,01,05,52,5.50
2014,04,01,05,53,5.50
2014,04,01,05,54,5.40
2014,04,01,05,55,5.40
2014,04,01,05,56,5.30
2014,04,01,05,57,5.30
2014,04,01,05,58,5.30
2014,04,01,05,59,5.30
2014,04,01,06,00,5.30
2014,04,01,06,01,5.30
2014,04,01,06,02,5.40
2014,04,01,06,03,5.50
2014,04,01,06,04,5.60
2014,04,01,06,05,5.60
2014,04,01,06,06,5.70
2014,04,01,06,07,5.70
2014,04,01,06,08,5.80
2014,04,01,06,09,5.80
2014,04,01,06,10,5.80
2014,04,01,06,11,5.80
2014,04,01,06,12,5.80
2014,04,01,06,13,5.90
2014,04,01,06,14,5.90
2014,04,01,06,15,5.90
2014,04,01,06,16,5.90
2014,04,01,06,17,5.90
2014,04,01,06,18,5.90
2014,04,01,06,19,5.80
2014,04,01,06,20,5.80
2014,04,01,06,21,5.70
2014,04,01,06,22,5.70
2014,04,01,06,23,5.70
2014,04,01,06,24,5.70
2014,04,01,06,25,5.60
2014,04,01,06,26,5.60
2014,04,01,06,27,5.70
2014,04,01,06,28,5.70
2014,04,01,06,29,5.70
2014,04,01,06,30,5.70
2014,04,01,06,31,5.70
2014,04,01,06,32,5.70
2014,04,01,06,33,5.70
2014,04,01,06,34,5.70
2014,04,01,06,35,5.70
2014,04,01,06,36,5.70
2014,04,01,06,37,5.80
2014,04,01,06,38,5.80
2014,04,01,06,39,5.80
2014,04,01,06,40,5.80
2014,04,01,06,41,5.80
2014,04,01,06,42,5.80
2014,04,01,06,43,5.80
2014,04,01,06,44,5.80
2014,04,01,06,45,5.80
2014,04,01,06,46,5.80
2014,04,01,06,47,5.80
2014,04,01,06,48,5.80
2014,04,01,06,49,5.70
2014,04,01,06,50,5.70
2014,04,01,06,51,5.70
2014,04,01,06,52,5.70
2014,04,01,06,53,5.70
2014,04,01,06,54,5.60
2014,04,01,06,55,5.60
2014,04,01,06,56,5.60
2014,04,01,06,57,5.70
2014,04,01,06,58,5.70
2014,04,01,06,59,5.70
2014,04,01,07,00,5.70
2014,04,01,07,01,5.70
2014,04,01,07,02,5.70
2014,04,01,07,03,5.70
2014,04,01,07,04,5.70
2014,04,01,07,05,5.70
2014,04,01,07,06,5.70
2014,04,01,07,07,5.70
2014,04,01,07,08,5.70
2014,04,01,07,09,5.80
2014,04,01,07,10,5.80
2014,04,01,07,11,5.80
2014,04,01,07,12,5.80
2014,04,01,07,13,5.90
2014,04,01,07,14,5.90
2014,04,01,07,15,5.90
2014,04,01,07,16,5.90
2014,04,01,07,17,5.90
2014,04,01,07,18,5.90
2014,04,01,07,19,5.90
2014,04,01,07,20,5.90
2014,04,01,07,21,5.90
2014,04,01,07,22,6.00
2014,04,01,07,23,6.00
2014,04,01,07,24,6.00
2014,04,01,07,25,6.10
2014,04,01,07,26,6.00
2014,04,01,07,27,6.00
2014,04,01,07,28,6.00
2014,04,01,07,29,6.00
2014,04,01,07,30,6.00
2014,04,01,07,31,6.00
2014,04,01,07,32,6.00
2014,04,01,07,33,6.10
2014,04,01,07,34,6.10
2014,04,01,07,35,6.10
2014,04,01,07,36,6.20
2014,04,01,07,37,6.20
2014,04,01,07,38,6.30
2014,04,01,07,39,6.30
2014,04,01,07,40,6.40
2014,04,01,07,41,6.40
2014,04,01,07,42,6.50
2014,04,01,07,43,6.50
2014,04,01,07,44,6.60
2014,04,01,07,45,6.60
2014,04,01,07,46,6.70
2014,04,01,07,47,6.70
2014,04,01,07,48,6.70
2014,04,01,07,49,6.80
2014,04,01,07,50,6.80
2014,04,01,07,51,6.90
2014,04,01,07,52,6.90
2014,04,01,07,53,7.00
2014,04,01,07,54,7.10
2014,04,01,07,55,7.20
2014,04,01,07,56,7.20
2014,04,01,07,57,7.30
2014,04,01,07,58,7.30
2014,04,01,07,59,7.40
2014,04,01,08,00,7.40
2014,04,01,08,01,7.50
2014,04,01,08,02,7.50
2014,04,01,08,03,7.60
2014,04,01,08,04,7.70
2014,04,01,08,05,7.70
2014,04,01,08,06,7.80
2014,04,01,08,07,7.80
2014,04,01,08,08,7.90
2014,04,01,08,09,7.90
2014,04,01,08,10,7.90
2014,04,01,08,11,8.00
2014,04,01,08,12,8.00
2014,04,01,08,13,8.10
2014,04,01,08,14,8.10
2014,04,01,08,15,8.10
2014,04,01,08,16,8.10
2014,04,01,08,17,8.20
2014,04,01,08,18,8.20
2014,04,01,08,19,8.30
2014,04,01,08,20,8.30
2014,04,01,08,21,8.40
2014,04,01,08,22,8.40
2014,04,01,08,23,8.40
2014,04,01,08,24,8.50
2014,04,01,08,25,8.60
2014,04,01,08,26,8.60
2014,04,01,08,27,8.70
2014,04,01,08,28,8.70
2014,04,01,08,29,8.70
2014,04,01,08,30,8.80
2014,04,01,08,31,8.80
2014,04,01,08,32,8.80
2014,04,01,08,33,8.80
2014,04,01,08,34,8.90
2014,04,01,08,35,8.90
2014,04,01,08,36,8.90
2014,04,01,08,37,8.90
2014,04,01,08,38,9.00
2014,04,01,08,39,9.00
2014,04,01,08,40,9.10
2014,04,01,08,41,9.10
2014,04,01,08,42,9.10
2014,04,01,08,43,9.20
2014,04,01,08,44,9.20
2014,04,01,08,45,9.20
2014,04,01,08,46,9.30
2014,04,01,08,47,9.30
2014,04,01,08,48,9.30
2014,04,01,08,49,9.30
2014,04,01,08,50,9.40
2014,04,01,08,51,9.40
2014,04,01,08,52,9.40
2014,04,01,08,53,9.40
2014,04,01,08,54,9.50
2014,04,01,08,55,9.50
2014,04,01,08,56,9.50
2014,04,01,08,57,9.60
2014,04,01,08,58,9.60
2014,04,01,08,59,9.60
2014,04,01,09,00,9.60
2014,04,01,09,01,9.60
2014,04,01,09,02,9.70
2014,04,01,09,03,9.70
2014,04,01,09,04,9.70
2014,04,01,09,05,9.70
2014,04,01,09,06,9.70
2014,04,01,09,07,9.80
2014,04,01,09,08,9.80
2014,04,01,09,09,9.80
2014,04,01,09,10,9.80
2014,04,01,09,11,9.90
2014,04,01,09,12,9.90
2014,04,01,09,13,9.90
2014,04,01,09,14,9.90
2014,04,01,09,15,10.00
2014,04,01,09,16,10.00
2014,04,01,09,17,10.00
2014,04,01,09,18,10.10
2014,04,01,09,19,10.10
2014,04,01,09,20,10.10
2014,04,01,09,21,10.10
2014,04,01,09,22,10.10
2014,04,01,09,23,10.10
2014,04,01,09,24,10.10
2014,04,01,09,25,10.20
2014,04,01,09,26,10.20
2014,04,01,09,27,10.20
2014,04,01,09,28,10.20
2014,04,01,09,29,10.20
2014,04,01,09,30,10.20
2014,04,01,09,31,10.30
2014,04,01,09,32,10.30
2014,04,01,09,33,10.30
2014,04,01,09,34,10.30
2014,04,01,09,35,10.40
2014,04,01,09,36,10.40
2014,04,01,09,37,10.50
2014,04,01,09,38,10.50
2014,04,01,09,39,10.60
2014,04,01,09,40,10.60
2014,04,01,09,41,10.70
2014,04,01,09,42,10.70
2014,04,01,09,43,10.70
2014,04,01,09,44,10.80
2014,04,01,09,45,10.80
2014,04,01,09,46,10.80
2014,04,01,09,47,10.80
2014,04,01,09,48,10.80
2014,04,01,09,49,10.80
2014,04,01,09,50,10.80
2014,04,01,09,51,10.80
2014,04,01,09,52,10.80
2014,04,01,09,53,10.80
2014,04,01,09,54,10.80
2014,04,01,09,55,10.90
2014,04,01,09,56,10.90
2014,04,01,09,57,10.90
2014,04,01,09,58,11.00
2014,04,01,09,59,11.00
2014,04,01,10,00,11.10
2014,04,01,10,01,11.10
2014,04,01,10,02,11.10
2014,04,01,10,03,11.10
2014,04,01,10,04,11.10
2014,04,01,10,05,11.10
2014,04,01,10,06,11.10
2014,04,01,10,07,11.20
2014,04,01,10,08,11.20
2014,04,01,10,09,11.20
2014,04,01,10,10,11.20
2014,04,01,10,11,11.20
2014,04,01,10,12,11.30
2014,04,01,10,13,11.30
2014,04,01,10,14,11.30
2014,04,01,10,15,11.30
2014,04,01,10,16,11.30
2014,04,01,10,17,11.30
2014,04,01,10,18,11.30
2014,04,01,10,19,11.30
2014,04,01,10,20,11.20
2014,04,01,10,21,11.20
2014,04,01,10,22,11.30
2014,04,01,10,23,11.30
2014,04,01,10,24,11.20
2014,04,01,10,25,11.20
2014,04,01,10,26,11.30
2014,04,01,10,27,11.30
2014,04,01,10,28,11.30
2014,04,01,10,29,11.30
2014,04,01,10,30,11.30
2014,04,01,10,31,11.30
2014,04,01,10,32,11.30
2014,04,01,10,33,11.30
2014,04,01,10,34,11.40
2014,04,01,10,35,11.40
2014,04,01,10,36,11.50
2014,04,01,10,37,11.60
2014,04,01,10,38,11.70
2014,04,01,10,39,11.70
2014,04,01,10,40,11.70
2014,04,01,10,41,11.70
2014,04,01,10,42,11.70
2014,04,01,10,43,11.80
2014,04,01,10,44,11.80
2014,04,01,10,45,11.90
2014,04,01,10,46,11.90
2014,04,01,10,47,11.90
2014,04,01,10,48,11.90
2014,04,01,10,49,11.90
2014,04,01,10,50,11.90
2014,04,01,10,51,11.80
2014,04,01,10,52,11.80
2014,04,01,10,53,11.80
2014,04,01,10,54,11.80
2014,04,01,10,55,11.80
2014,04,01,10,56,11.80
2014,04,01,10,57,11.80
2014,04,01,10,58,11.80
2014,04,01,10,59,11.70
2014,04,01,11,00,11.70
2014,04,01,11,01,11.80
2014,04,01,11,02,11.80
2014,04,01,11,03,11.80
2014,04,01,11,04,11.90
2014,04,01,11,05,11.90
2014,04,01,11,06,12.00
2014,04,01,11,07,12.00
2014,04,01,11,08,12.00
2014,04,01,11,09,12.10
2014,04,01,11,10,12.00
2014,04,01,11,11,11.90
2014,04,01,11,12,11.90
2014,04,01,11,13,11.90
2014,04,01,11,14,11.90
2014,04,01,11,15,12.00
2014,04,01,11,16,12.00
2014,04,01,11,17,12.00
2014,04,01,11,18,12.00
2014,04,01,11,19,12.00
2014,04,01,11,20,12.00
2014,04,01,11,21,12.00
2014,04,01,11,22,12.00
2014,04,01,11,23,12.10
2014,04,01,11,24,12.10
2014,04,01,11,25,12.10
2014,04,01,11,26,12.10
2014,04,01,11,27,12.10
2014,04,01,11,28,12.10
2014,04,01,11,29,12.10
2014,04,01,11,30,12.10
2014,04,01,11,31,12.20
2014,04,01,11,32,12.20
2014,04,01,11,33,12.20
2014,04,01,11,34,12.20
2014,04,01,11,35,12.20
2014,04,01,11,36,12.20
2014,04,01,11,37,12.20
2014,04,01,11,38,12.20
2014,04,01,11,39,12.30
2014,04,01,11,40,12.40
2014,04,01,11,41,12.40
2014,04,01,11,42,12.40
2014,04,01,11,43,12.40
2014,04,01,11,44,12.50
2014,04,01,11,45,12.50
2014,04,01,11,46,12.50
2014,04,01,11,47,12.50
2014,04,01,11,48,12.50
2014,04,01,11,49,12.50
2014,04,01,11,50,12.40
2014,04,01,11,51,12.40
2014,04,01,11,52,12.30
2014,04,01,11,53,12.30
2014,04,01,11,54,12.20
2014,04,01,11,55,12.20
2014,04,01,11,56,12.10
2014,04,01,11,57,12.10
2014,04,01,11,58,12.10
2014,04,01,11,59,12.20
2014,04,01,12,00,12.20
2014,04,01,12,01,12.20
2014,04,01,12,02,12.20
2014,04,01,12,03,12.20
2014,04,01,12,04,12.20
2014,04,01,12,05,12.20
2014,04,01,12,06,12.30
2014,04,01,12,07,12.30
2014,04,01,12,08,12.40
2014,04,01,12,09,12.40
2014,04,01,12,10,12.40
2014,04,01,12,11,12.50
2014,04,01,12,12,12.50
2014,04,01,12,13,12.60
2014,04,01,12,14,12.60
2014,04,01,12,15,12.60
2014,04,01,12,16,12.60
2014,04,01,12,17,12.70
2014,04,01,12,18,12.70
2014,04,01,12,19,12.80
2014,04,01,12,20,12.80
2014,04,01,12,21,12.90
2014,04,01,12,22,12.90
2014,04,01,12,23,12.90
2014,04,01,12,24,12.90
2014,04,01,12,25,12.90
2014,04,01,12,26,12.90
2014,04,01,12,27,12.80
2014,04,01,12,28,12.80
2014,04,01,12,29,12.80
2014,04,01,12,30,12.80
2014,04,01,12,31,12.90
2014,04,01,12,32,12.90
2014,04,01,12,33,12.90
2014,04,01,12,34,12.90
2014,04,01,12,35,12.90
2014,04,01,12,36,12.90
2014,04,01,12,37,12.90
2014,04,01,12,38,13.00
2014,04,01,12,39,13.10
2014,04,01,12,40,13.10
2014,04,01,12,41,13.00
2014,04,01,12,42,13.00
2014,04,01,12,43,13.00
2014,04,01,12,44,13.00
2014,04,01,12,45,12.90
2014,04,01,12,46,12.90
2014,04,01,12,47,12.90
2014,04,01,12,48,12.90
2014,04,01,12,49,12.90
2014,04,01,12,50,13.00
2014,04,01,12,51,13.00
2014,04,01,12,52,13.00
2014,04,01,12,53,13.00
2014,04,01,12,54,13.00
2014,04,01,12,55,13.00
2014,04,01,12,56,13.10
2014,04,01,12,57,13.20
2014,04,01,12,58,13.30
2014,04,01,12,59,13.40
2014,04,01,13,00,13.40
2014,04,01,13,01,13.50
2014,04,01,13,02,13.50
2014,04,01,13,03,13.50
2014,04,01,13,04,13.50
2014,04,01,13,05,13.50
2014,04,01,13,06,13.40
2014,04,01,13,07,13.30
2014,04,01,13,08,13.30
2014,04,01,13,09,13.30
2014,04,01,13,10,13.20
2014,04,01,13,11,13.10
2014,04,01,13,12,13.00
2014,04,01,13,13,13.00
2014,04,01,13,14,12.90
2014,04,01,13,15,12.90
2014,04,01,13,16,12.90
2014,04,01,13,17,12.90
2014,04,01,13,18,13.00
2014,04,01,13,19,13.00
2014,04,01,13,20,13.00
2014,04,01,13,21,13.00
2014,04,01,13,22,13.10
2014,04,01,13,23,13.20
2014,04,01,13,24,13.30
2014,04,01,13,25,13.30
2014,04,01,13,26,13.30
2014,04,01,13,27,13.30
2014,04,01,13,28,13.30
2014,04,01,13,29,13.30
2014,04,01,13,30,13.30
2014,04,01,13,31,13.30
2014,04,01,13,32,13.40
2014,04,01,13,33,13.40
2014,04,01,13,34,13.40
2014,04,01,13,35,13.40
2014,04,01,13,36,13.50
2014,04,01,13,37,13.50
2014,04,01,13,38,13.60
2014,04,01,13,39,13.70
2014,04,01,13,40,13.70
2014,04,01,13,41,13.70
2014,04,01,13,42,13.60
2014,04,01,13,43,13.60
2014,04,01,13,44,13.60
2014,04,01,13,45,13.60
2014,04,01,13,46,13.60
2014,04,01,13,47,13.70
2014,04,01,13,48,13.70
2014,04,01,13,49,13.70
2014,04,01,13,50,13.70
2014,04,01,13,51,13.70
2014,04,01,13,52,13.60
2014,04,01,13,53,13.60
2014,04,01,13,54,13.60
2014,04,01,13,55,13.60
2014,04,01,13,56,13.60
2014,04,01,13,57,13.60
2014,04,01,13,58,13.70
2014,04,01,13,59,13.80
2014,04,01,14,00,13.80
2014,04,01,14,01,13.90
2014,04,01,14,02,13.90
2014,04,01,14,03,14.00
2014,04,01,14,04,14.00
2014,04,01,14,05,13.90
2014,04,01,14,06,13.90
2014,04,01,14,07,13.90
2014,04,01,14,08,13.80
2014,04,01,14,09,13.80
2014,04,01,14,10,13.80
2014,04,01,14,11,13.90
2014,04,01,14,12,13.90
2014,04,01,14,13,13.90
2014,04,01,14,14,13.90
2014,04,01,14,15,14.00
2014,04,01,14,16,14.10
2014,04,01,14,17,14.20
2014,04,01,14,18,14.30
2014,04,01,14,19,14.30
2014,04,01,14,20,14.40
2014,04,01,14,21,14.40
2014,04,01,14,22,14.50
2014,04,01,14,23,14.50
2014,04,01,14,24,14.50
2014,04,01,14,25,14.50
2014,04,01,14,26,14.50
2014,04,01,14,27,14.60
2014,04,01,14,28,14.70
2014,04,01,14,29,14.80
2014,04,01,14,30,14.80
2014,04,01,14,31,14.80
2014,04,01,14,32,14.70
2014,04,01,14,33,14.70
2014,04,01,14,34,14.70
2014,04,01,14,35,14.70
2014,04,01,14,36,14.60
2014,04,01,14,37,14.50
2014,04,01,14,38,14.50
2014,04,01,14,39,14.50
2014,04,01,14,40,14.50
2014,04,01,14,41,14.60
2014,04,01,14,42,14.70
2014,04,01,14,43,14.80
2014,04,01,14,44,14.90
2014,04,01,14,45,15.00
2014,04,01,14,46,15.10
2014,04,01,14,47,15.10
2014,04,01,14,48,15.10
2014,04,01,14,49,15.10
2014,04,01,14,50,15.10
2014,04,01,14,51,15.00
2014,04,01,14,52,15.00
2014,04,01,14,53,15.00
2014,04,01,14,54,15.00
2014,04,01,14,55,15.10
2014,04,01,14,56,15.10
2014,04,01,14,57,15.10
2014,04,01,14,58,15.00
2014,04,01,14,59,14.90
2014,04,01,15,00,14.90
2014,04,01,15,01,14.90
2014,04,01,15,02,14.90
2014,04,01,15,03,14.80
2014,04,01,15,04,14.80
2014,04,01,15,05,14.90
2014,04,01,15,06,14.90
2014,04,01,15,07,15.00
2014,04,01,15,08,15.00
2014,04,01,15,09,15.10
2014,04,01,15,10,15.20
2014,04,01,15,11,15.20
2014,04,01,15,12,15.30
2014,04,01,15,13,15.30
2014,04,01,15,14,15.40
2014,04,01,15,15,15.40
2014,04,01,15,16,15.40
2014,04,01,15,17,15.40
2014,04,01,15,18,15.30
2014,04,01,15,19,15.30
2014,04,01,15,20,15.20
2014,04,01,15,21,15.20
2014,04,01,15,22,15.10
2014,04,01,15,23,15.10
2014,04,01,15,24,15.00
2014,04,01,15,25,15.00
2014,04,01,15,26,14.90
2014,04,01,15,27,14.80
2014,04,01,15,28,14.80
2014,04,01,15,29,14.70
2014,04,01,15,30,14.60
2014,04,01,15,31,14.60
2014,04,01,15,32,14.50
2014,04,01,15,33,14.50
2014,04,01,15,34,14.60
2014,04,01,15,35,14.60
2014,04,01,15,36,14.60
2014,04,01,15,37,14.70
2014,04,01,15,38,14.80
2014,04,01,15,39,14.90
2014,04,01,15,40,15.00
2014,04,01,15,41,15.00
2014,04,01,15,42,15.10
2014,04,01,15,43,15.00
2014,04,01,15,44,15.00
2014,04,01,15,45,15.00
2014,04,01,15,46,14.90
2014,04,01,15,47,14.90
2014,04,01,15,48,14.90
2014,04,01,15,49,14.90
2014,04,01,15,50,14.90
2014,04,01,15,51,14.90
2014,04,01,15,52,14.90
2014,04,01,15,53,14.90
2014,04,01,15,54,14.80
2014,04,01,15,55,14.80
2014,04,01,15,56,14.80
2014,04,01,15,57,14.90
2014,04,01,15,58,14.90
2014,04,01,15,59,15.00
2014,04,01,16,00,15.00
2014,04,01,16,01,15.10
2014,04,01,16,02,15.20
2014,04,01,16,03,15.20
2014,04,01,16,04,15.20
2014,04,01,16,05,15.20
2014,04,01,16,06,15.20
2014,04,01,16,07,15.20
2014,04,01,16,08,15.20
2014,04,01,16,09,15.20
2014,04,01,16,10,15.20
2014,04,01,16,11,15.20
2014,04,01,16,12,15.20
2014,04,01,16,13,15.20
2014,04,01,16,14,15.20
2014,04,01,16,15,15.20
2014,04,01,16,16,15.20
2014,04,01,16,17,15.20
2014,04,01,16,18,15.20
2014,04,01,16,19,15.20
2014,04,01,16,20,15.20
2014,04,01,16,21,15.20
2014,04,01,16,22,15.20
2014,04,01,16,23,15.20
2014,04,01,16,24,15.30
2014,04,01,16,25,15.30
2014,04,01,16,26,15.40
2014,04,01,16,27,15.50
2014,04,01,16,28,15.60
2014,04,01,16,29,15.70
2014,04,01,16,30,15.70
2014,04,01,16,31,15.70
2014,04,01,16,32,15.70
2014,04,01,16,33,15.70
2014,04,01,16,34,15.70
2014,04,01,16,35,15.70
2014,04,01,16,36,15.70
2014,04,01,16,37,15.80
2014,04,01,16,38,15.80
2014,04,01,16,39,15.80
2014,04,01,16,40,15.90
2014,04,01,16,41,15.90
2014,04,01,16,42,15.90
2014,04,01,16,43,15.90
2014,04,01,16,44,15.90
2014,04,01,16,45,15.90
2014,04,01,16,46,15.90
2014,04,01,16,47,15.90
2014,04,01,16,48,15.90
2014,04,01,16,49,15.90
2014,04,01,16,50,15.90
2014,04,01,16,51,16.00
2014,04,01,16,52,16.00
2014,04,01,16,53,16.00
2014,04,01,16,54,16.00
2014,04,01,16,55,16.00
2014,04,01,16,56,15.90
2014,04,01,16,57,15.90
2014,04,01,16,58,15.90
2014,04,01,16,59,15.80
2014,04,01,17,00,15.70
2014,04,01,17,01,15.60
2014,04,01,17,02,15.50
2014,04,01,17,03,15.40
2014,04,01,17,04,15.30
2014,04,01,17,05,15.20
2014,04,01,17,06,15.10
2014,04,01,17,07,15.10
2014,04,01,17,08,15.00
2014,04,01,17,09,14.90
2014,04,01,17,10,14.80
2014,04,01,17,11,14.80
2014,04,01,17,12,14.70
2014,04,01,17,13,14.60
2014,04,01,17,14,14.60
2014,04,01,17,15,14.50
2014,04,01,17,16,14.40
2014,04,01,17,17,14.40
2014,04,01,17,18,14.30
2014,04,01,17,19,14.30
2014,04,01,17,20,14.20
2014,04,01,17,21,14.20
2014,04,01,17,22,14.10
2014,04,01,17,23,14.10
2014,04,01,17,24,14.10
2014,04,01,17,25,14.00
2014,04,01,17,26,14.00
2014,04,01,17,27,14.00
2014,04,01,17,28,13.90
2014,04,01,17,29,13.90
2014,04,01,17,30,13.90
2014,04,01,17,31,14.00
2014,04,01,17,32,14.00
2014,04,01,17,33,14.00
2014,04,01,17,34,14.10
2014,04,01,17,35,14.10
2014,04,01,17,36,14.10
2014,04,01,17,37,14.10
2014,04,01,17,38,14.20
2014,04,01,17,39,14.20
2014,04,01,17,40,14.20
2014,04,01,17,41,14.20
2014,04,01,17,42,14.20
2014,04,01,17,43,14.20